Regional Weather Roundup
Issued by NWS Kansas City/Pleasant Hill, MO

Home | Current Version | Previous Version | Graphics & Text | Print | Product List | Glossary Off
Versions: 1 2 3 4 5 6 7 8 9 10 11 12 13 14 15 16 17 18 19 20 21 22 23 24 25 26 27

000
ASUS43 KEAX 291810
RWREAX

WEATHER ROUNDUP FOR EASTERN KANSAS AND NORTHWEST MISSOURI
NATIONAL WEATHER SERVICE KANSAS CITY/PLEASANT HILL MO
100 PM CDT MON AUG 29 2016

KSZ040-057-103>105-MOZ028-029-037-043-291900-
...KANSAS CITY METROPOLITAN AREA...

CITY           SKY/WX    TMP DP  RH WIND       PRES   REMARKS
K.C. INTL      MOSUNNY   88  71  57 S6        30.20F HX  94
6HR MIN TEMP:  70; 6HR MAX TEMP:  88;

K.C. DOWNTOWN  PTSUNNY   88  70  55 E6        30.18F HX  93
6HR MIN TEMP:  72; 6HR MAX TEMP:  90;

LEES SUMMIT    CLOUDY    85  72  65 NE7       30.21S HX  91
6HR MIN TEMP:  70; 6HR MAX TEMP:  87;

OLATHE - IXD   PTSUNNY   86  71  60 NE5       30.21F HX  91
6HR MIN TEMP:  71; 6HR MAX TEMP:  86;

OLATHE - OJC   MOSUNNY   87  70  56 SE7       30.20F HX  92
6HR MIN TEMP:  69; 6HR MAX TEMP:  87;

LAWRENCE       MOSUNNY   88  71  57 CALM      30.19S HX  94

$$

MOZ001>008-011>017-020>025-030>033-038>040-044>046-053-054-291900-
...NORTHERN AND CENTRAL MISSOURI...

CITY           SKY/WX    TMP DP  RH WIND       PRES   REMARKS
ST. JOSEPH     PTSUNNY   89  70  53 CALM      30.19S HX  94
6HR MIN TEMP:  69; 6HR MAX TEMP:  89;

MOSBY          PTCLDY    88  70  55 CALM      30.19F HX  92
WHITEMAN AFB   PTSUNNY   86  74  67 VRB1      30.18F HX  93
6HR MIN TEMP:  70; 6HR MAX TEMP:  88;

CLINTON        MOSUNNY   88  73  62 CALM      30.19F HX  96
SEDALIA        MOSUNNY   88  70  55 E3        30.21F HX  93
6HR MIN TEMP:  70; 6HR MAX TEMP:  89;

WARSAW         NOT AVBL
CHILLICOTHE      N/A     91  74  57 CALM      30.20F HX 100
6HR MIN TEMP:  70; 6HR MAX TEMP:  91;

KIRKSVILLE     PTSUNNY   87  74  64 NE3       30.22F HX  95
6HR MIN TEMP:  69; 6HR MAX TEMP:  88;


$$

MOZ041-047>049-056>058-063>065-088>090-097-291900-
...EASTERN AND SOUTHERN MISSOURI...

CITY           SKY/WX    TMP DP  RH WIND       PRES   REMARKS
ST. LOUIS INTL MOSUNNY   92  71  50 SE8       30.20F HX  98
6HR MIN TEMP:  77; 6HR MAX TEMP:  92;

SPIRIT OF STL  PTSUNNY   89  73  59 NE8       30.17F HX  97
COLUMBIA       MOSUNNY   88  73  61 SE3       30.20F HX  95
JEFFERSON CITY SUNNY     90  72  55 CALM      30.17F HX  97
ROLLA          SUNNY     88  70  55 VRB3      30.20F HX  93
OSAGE BEACH    SUNNY     88  70  55 CALM      30.20F HX  93
SPRINGFIELD    MOSUNNY   91  65  41 CALM      30.18F HX  93
BRANSON        MOSUNNY   88  72  58 E6        30.20F HX  94
JOPLIN         MOSUNNY   88  71  57 SW6       30.17F HX  94
WEST PLAINS    MOSUNNY   89  70  53 E7        30.21F HX  94

$$

IAZ060-094-KSZ022-034>040-054-083-096-NEZ052-066-093-291900-
...KANSAS...SOUTHEAST NEBRASKA AND IOWA...

CITY           SKY/WX    TMP DP  RH WIND       PRES   REMARKS
TOPEKA         SUNNY     88  69  53 VRB3      30.18F HX  92
6HR MIN TEMP:  70; 6HR MAX TEMP:  89;

MANHATTAN      MOSUNNY   87  73  62 SE6       30.17F HX  94
EMPORIA        MOSUNNY   86  71  60 SE7       30.19F HX  91
CHANUTE        MOSUNNY   85  72  65 SE7       30.18S HX  91
WICHITA        CLOUDY    84  72  67 E10       30.18F
OMAHA          CLOUDY    83  72  69 SE6       30.19F
LINCOLN        CLOUDY    85  71  63 S3        30.19F HX  90
FALLS CITY     SUNNY     87  73  62 VRB5      30.18F HX  94
LAMONI         MOSUNNY   85  74  69 SE6       30.21F HX  92
DES MOINES     PTSUNNY   82  75  79 SE6       30.21F

$$





USA.gov is the U.S. government's official web portal to all federal, state and local government web resources and services.